TimeCST,TemperatureF,Dew PointF,Humidity,Sea Level PressureIn,VisibilityMPH,Wind Direction,Wind SpeedMPH,Gust SpeedMPH,PrecipitationIn,Events,Conditions,WindDirDegrees,DateUTC
12:15 AM,-0.4,-2.2,92,30.04,10.0,South,10.4,-,N/A,,Clear,190,2012-12-10 06:15:00
12:35 AM,-0.4,-0.4,100,30.03,10.0,South,12.7,-,N/A,,Clear,190,2012-12-10 06:35:00
12:55 AM,1.4,-0.4,92,30.02,10.0,South,15.0,-,N/A,,Clear,190,2012-12-10 06:55:00
1:15 AM,1.4,-0.4,92,30.00,10.0,South,11.5,-,N/A,,Clear,190,2012-12-10 07:15:00
1:35 AM,-0.4,-0.4,100,29.98,10.0,South,11.5,-,N/A,,Clear,190,2012-12-10 07:35:00
1:55 AM,-0.4,-2.2,92,29.96,10.0,South,12.7,-,N/A,,Clear,190,2012-12-10 07:55:00
2:15 AM,-0.4,-2.2,92,29.95,10.0,SSW,12.7,-,N/A,,Clear,210,2012-12-10 08:15:00
2:55 AM,-0.4,-2.2,92,29.93,-9999.0,SSW,12.7,-,N/A,,Unknown,210,2012-12-10 08:55:00
3:15 AM,-0.4,-2.2,92,29.92,-9999.0,SSW,15.0,-,N/A,,Unknown,200,2012-12-10 09:15:00
3:35 AM,-0.4,-2.2,92,29.90,10.0,South,13.8,-,N/A,,Clear,190,2012-12-10 09:35:00
3:55 AM,1.4,-2.2,85,29.88,10.0,South,12.7,-,N/A,,Clear,190,2012-12-10 09:55:00
4:15 AM,1.4,-2.2,85,29.87,10.0,South,12.7,-,N/A,,Clear,190,2012-12-10 10:15:00
4:35 AM,1.4,-0.4,92,29.85,10.0,South,15.0,-,N/A,,Clear,190,2012-12-10 10:35:00
4:55 AM,5.0,-0.4,78,29.84,10.0,SSW,18.4,25.3,N/A,,Partly Cloudy,200,2012-12-10 10:55:00
5:15 AM,5.0,-0.4,78,29.82,10.0,South,16.1,-,N/A,,Clear,190,2012-12-10 11:15:00
5:35 AM,5.0,-0.4,78,29.81,10.0,SSW,16.1,-,N/A,,Partly Cloudy,200,2012-12-10 11:35:00
5:55 AM,5.0,-0.4,78,29.80,10.0,SSW,12.7,-,N/A,,Mostly Cloudy,210,2012-12-10 11:55:00
6:15 AM,5.0,-0.4,78,29.80,10.0,SSW,12.7,-,N/A,,Overcast,200,2012-12-10 12:15:00
6:35 AM,5.0,-0.4,78,29.79,10.0,South,15.0,-,N/A,,Overcast,190,2012-12-10 12:35:00
7:15 AM,5.0,-0.4,78,29.77,10.0,South,13.8,-,N/A,,Overcast,190,2012-12-10 13:15:00
7:35 AM,5.0,-0.4,78,29.76,10.0,South,15.0,-,N/A,,Overcast,190,2012-12-10 13:35:00
7:55 AM,6.8,-0.4,72,29.75,10.0,South,16.1,20.7,N/A,,Overcast,190,2012-12-10 13:55:00
8:15 AM,6.8,1.4,79,29.75,10.0,South,15.0,-,N/A,,Overcast,190,2012-12-10 14:15:00
8:35 AM,6.8,1.4,79,29.74,7.0,South,17.3,-,N/A,Snow,Light Snow,190,2012-12-10 14:35:00
8:55 AM,8.6,3.2,79,29.73,2.5,South,17.3,-,N/A,Snow,Light Snow,190,2012-12-10 14:55:00
9:15 AM,8.6,3.2,79,29.72,6.0,South,17.3,-,N/A,Snow,Light Snow,190,2012-12-10 15:15:00
9:35 AM,8.6,5.0,85,29.72,10.0,South,13.8,-,N/A,,Overcast,180,2012-12-10 15:35:00
9:55 AM,8.6,5.0,85,29.72,10.0,South,15.0,-,N/A,,Overcast,180,2012-12-10 15:55:00
10:15 AM,10.4,6.8,85,29.71,10.0,SSW,16.1,-,N/A,,Overcast,200,2012-12-10 16:15:00
10:35 AM,10.4,6.8,85,29.71,10.0,South,11.5,-,N/A,,Overcast,190,2012-12-10 16:35:00
10:55 AM,14.0,8.6,79,29.71,9.0,South,8.1,-,N/A,,Overcast,180,2012-12-10 16:55:00
11:15 AM,12.2,8.6,85,29.71,10.0,South,11.5,-,N/A,,Overcast,190,2012-12-10 17:15:00
11:35 AM,14.0,8.6,79,29.70,4.0,SSW,10.4,-,N/A,Snow,Light Snow,200,2012-12-10 17:35:00
11:55 AM,15.8,10.4,79,29.69,6.0,SSW,9.2,-,N/A,Snow,Light Snow,210,2012-12-10 17:55:00
12:15 PM,15.8,12.2,86,29.69,10.0,SW,8.1,-,N/A,,Overcast,230,2012-12-10 18:15:00
12:35 PM,17.6,14.0,86,29.69,10.0,WSW,6.9,-,N/A,,Mostly Cloudy,240,2012-12-10 18:35:00
12:55 PM,19.4,15.8,86,29.68,9.0,SW,4.6,-,N/A,,Overcast,230,2012-12-10 18:55:00
1:15 PM,23.0,17.6,80,29.67,10.0,WSW,8.1,-,N/A,,Overcast,250,2012-12-10 19:15:00
1:35 PM,23.0,17.6,80,29.67,10.0,WSW,8.1,-,N/A,,Mostly Cloudy,250,2012-12-10 19:35:00
1:55 PM,23.0,19.4,86,29.67,10.0,West,8.1,-,N/A,,Scattered Clouds,260,2012-12-10 19:55:00
2:15 PM,24.8,19.4,80,29.67,10.0,WNW,11.5,-,N/A,,Overcast,300,2012-12-10 20:15:00
2:35 PM,26.6,19.4,74,29.68,10.0,WNW,17.3,20.7,N/A,,Overcast,300,2012-12-10 20:35:00
2:55 PM,24.8,17.6,74,29.68,10.0,WNW,19.6,25.3,N/A,,Scattered Clouds,300,2012-12-10 20:55:00
3:15 PM,24.8,17.6,74,29.69,10.0,NW,19.6,24.2,N/A,,Scattered Clouds,310,2012-12-10 21:15:00
3:35 PM,24.8,17.6,74,29.69,10.0,NW,12.7,19.6,N/A,,Scattered Clouds,310,2012-12-10 21:35:00
3:55 PM,24.8,17.6,74,29.70,10.0,NW,13.8,18.4,N/A,,Mostly Cloudy,310,2012-12-10 21:55:00
4:15 PM,23.0,15.8,74,29.71,10.0,WNW,11.5,-,N/A,,Partly Cloudy,300,2012-12-10 22:15:00
4:35 PM,21.2,15.8,80,29.72,10.0,WNW,10.4,-,N/A,,Scattered Clouds,300,2012-12-10 22:35:00
4:55 PM,21.2,15.8,80,29.72,10.0,WNW,8.1,-,N/A,,Overcast,300,2012-12-10 22:55:00
5:15 PM,23.0,17.6,80,29.73,10.0,WNW,15.0,21.9,N/A,,Overcast,300,2012-12-10 23:15:00
5:35 PM,23.0,17.6,80,29.74,10.0,WNW,15.0,23.0,N/A,Rain,Freezing Rain,300,2012-12-10 23:35:00
5:55 PM,23.0,17.6,80,29.74,10.0,WNW,12.7,-,N/A,,Overcast,300,2012-12-10 23:55:00
6:15 PM,23.0,19.4,86,29.74,10.0,WNW,11.5,-,N/A,,Overcast,300,2012-12-11 00:15:00
6:35 PM,23.0,19.4,86,29.74,10.0,WNW,11.5,-,N/A,,Overcast,290,2012-12-11 00:35:00
6:55 PM,23.0,21.2,93,29.74,10.0,West,12.7,-,N/A,,Overcast,280,2012-12-11 00:55:00
7:15 PM,23.0,23.0,100,29.75,10.0,WNW,12.7,18.4,N/A,Snow,Light Snow,290,2012-12-11 01:15:00
7:35 PM,23.0,23.0,100,29.75,10.0,WNW,15.0,19.6,0.01,Snow,Light Snow,300,2012-12-11 01:35:00
7:55 PM,23.0,23.0,100,29.74,10.0,NW,10.4,16.1,0.01,Snow,Light Snow,310,2012-12-11 01:55:00
8:15 PM,21.2,19.4,93,29.75,10.0,WNW,9.2,-,N/A,,Overcast,300,2012-12-11 02:15:00
8:35 PM,21.2,19.4,93,29.75,10.0,WNW,11.5,-,N/A,,Overcast,300,2012-12-11 02:35:00
8:55 PM,23.0,23.0,100,29.75,6.0,WNW,13.8,19.6,0.01,Snow,Light Snow,290,2012-12-11 02:55:00
9:15 PM,23.0,21.2,93,29.75,6.0,WNW,13.8,19.6,N/A,Rain,Freezing Rain,300,2012-12-11 03:15:00
9:35 PM,21.2,21.2,100,29.75,5.0,WNW,11.5,-,N/A,Rain,Freezing Rain,300,2012-12-11 03:35:00
9:55 PM,23.0,23.0,100,29.74,5.0,WNW,13.8,-,0.01,Snow,Light Snow,300,2012-12-11 03:55:00
10:15 PM,23.0,23.0,100,29.74,10.0,WNW,15.0,-,N/A,,Overcast,300,2012-12-11 04:15:00
10:35 PM,23.0,23.0,100,29.74,10.0,WNW,13.8,-,N/A,Rain,Freezing Rain,300,2012-12-11 04:35:00
10:55 PM,23.0,23.0,100,29.73,10.0,WNW,10.4,-,N/A,Snow,Light Snow,290,2012-12-11 04:55:00
11:15 PM,23.0,23.0,100,29.73,10.0,WNW,9.2,-,N/A,Snow,Light Snow,290,2012-12-11 05:15:00
11:35 PM,23.0,23.0,100,29.74,10.0,West,5.8,-,N/A,Snow,Light Snow,280,2012-12-11 05:35:00
11:55 PM,23.0,23.0,100,29.73,10.0,WNW,4.6,-,N/A,Snow,Light Snow,290,2012-12-11 05:55:00